Regional Weather Roundup
Issued by NWS Newport/Morehead, NC

Current Version | Previous Version | Text Only | Print | Product List | Glossary On
Versions: 1 2 3 4 5 6 7 8 9 10 11 12 13 14 15 16 17 18 19 20 21 22 23 24 25 26 27 28 29 30 31 32 33 34 35 36 37 38 39 40 41 42 43 44 45 46 47 48 49 50
000
ASUS42 KMHX 221922
RWRMHX
WEATHER ROUNDUP FOR EASTERN NORTH CAROLINA
NATIONAL WEATHER SERVICE NEWPORT/MOREHEAD CITY NC
200 PM EST MON DEC 22 2014

NOTE: "FAIR" INDICATES FEW OR NO CLOUDS BELOW 12,000 FEET
WITH NO SIGNIFICANT WEATHER AND/OR OBSTRUCTIONS TO VISIBILITY

NCZ015>017-031-032-045>047-102-103-222000-
NORTH COAST

CITY           SKY/WX    TMP DP  RH WIND       PRES   REMARKS
EDENTON        CLOUDY    51  50  98 N8G16     30.00F
ELIZABETH CITY LGT RAIN  55  50  83 NE15      30.00F
KITTY HAWK     DRIZZLE   56  56 100 CALM      29.96S
MANTEO         CLOUDY    55  55  99 N7        29.96S

$$

NCZ045>047-081-094-103-104-222000-
CENTRAL COAST

CITY           SKY/WX    TMP DP  RH WIND       PRES   REMARKS
FRISCO         CLOUDY    61  60  97 S7        29.93F FOG
SWANQUARTER      N/A     54 N/A N/A NE5       29.91F

$$

NCZ095-097-098-100-101-222000-
SOUTHERN COAST

CITY           SKY/WX    TMP DP  RH WIND       PRES   REMARKS
BEAUFORT       CLOUDY    51  50  96 N9        29.97F
CEDAR ISLAND     N/A     50 N/A N/A NW10      30.00S
JACKSONVILLE   CLOUDY    47  46  97 N13       30.00F
PINEY ISLAND     N/A     53  49  86 MISG      29.96F
WILMINGTON     CLOUDY    47  45  93 N9        29.99F


$$

NCZ011>013-027>030-043-044-078>080-089-090>093-098-222000-
COASTAL PLAIN

CITY           SKY/WX    TMP DP  RH WIND       PRES   REMARKS
AHOSKIE        HVY RAIN  42  41  96 N7        30.06F
CLINTON        CLOUDY    43  43 100 NE7       30.03F FOG
ELIZABETHTOWN  CLOUDY    44  43  99 CALM      30.01F FOG
GOLDSBORO      NOT AVBL
GREENVILLE     DRIZZLE   45  45 100 N7        30.05S
HAVELOCK       CLOUDY    50  48  93 NW7       29.99F
KENANSVILLE    CLOUDY    43  43  99 N7        30.04F FOG
KINSTON        CLOUDY    45  45 100 N6        30.04S FOG
NEW BERN       CLOUDY    52  48  86 MISG      30.01F
RICHLANDS      CLOUDY    46  43  87 NW7       30.01F
ROCKY MOUNT    CLOUDY    41  39  93 N9        30.08R FOG
WASHINGTON     DRIZZLE   47  46  95 NW6       30.02R
WHITEVILLE     CLOUDY    44  43  95 CALM      30.03S

$$

AMZ130-135-150-152-154-156-158-170-250-252-270-ANZ085-086-088-633-658-670-222000-
MARINE OBSERVATIONS

STATION/POSITION TIME  TEMP    WIND        PRES    WAVE   SWELL
                       AIR SEA DIR/SP/G            HT/PER HT/PER
                 (UTC) (F)     (DEG/KT/KT) (MB)    (FT/S) (FT/S)
CHESAPEAKE LIGHT 1900   49      40/ 26/ 27 1017.0
64 E VA BEACH    1900   58 54   60/ 19/ 21 1015.2    8/ 7   2/15
DUCK             1900   55 46   50/ 25/ 33 1013.9
2 E DUCK         1900      47                N/A     7/ 7
10 NE DUCK       1900      51                N/A     8/ 6
OREGON INLET     1900   57 48  260/  2/  3 1014.1
13E OREGON INLT  1900      52                N/A     9/ 7   2/11
HATTERAS CG      1900   56 53  310/ 11/ 12 1014.2
DIAMOND BUOY     1900   70                 1013.2   10/ 8
17 S OCRACOKE    NOT AVBL
CAPE LOOKOUT     1900   51     320/ 11/ 12 1014.5
BEAUFORT LAB     1900   50 51  340/  8/ 11 1013.8
30 SE NEW RIVER  1900   53 60  340/ 14/ 16 1015.1    6/ 7   5/ 7
5 SE WRIGHTSVLE  NOT AVBL
225 S CAPE HAT   1836   72 72  210/ 10/ 12 1015.4    5/ 7   5/ 7
41 SE CHARLESTON 1900   60 73   30/ 12/ 16 1014.2    5/ 8   3/ 8

$$


USA.gov is the U.S. government's official web portal to all federal, state and local government web resources and services.